1302998434789,0.818852
1302998494789,0.823468
1302998554789,0.830332
1302998614789,0.822823
1302998674789,0.823342
1302998734789,0.820490
1302998794789,0.824355
1302998854789,0.817166
1302998914789,0.808970
1302998974789,0.821186
1302999034789,0.817804
1302999094789,0.817689
1302999154789,0.824041
1302999214789,0.815220
1302999274789,0.820338
1302999334789,0.818954
1302999394789,0.818970
1302999454789,0.815390
1302999514789,0.812162
1302999574789,0.824007
1302999634789,0.815277
1302999694789,0.820322
1302999754789,0.812899
1302999814789,0.809152
1302999874789,0.815218
1302999934789,0.816991
1302999994789,0.818428
1303000054789,0.818619
1303000114789,0.815064
1303000174789,0.815068
1303000234789,0.821167
1303000294789,0.824424
1303000354789,0.819686
1303000414789,0.829061
1303000474789,0.828295
1303000534789,0.819080
1303000594789,0.827644
1303000654789,0.831271
1303000714789,0.831131
1303000774789,0.832093
1303000834789,0.830280
1303000894789,0.833634
1303000954789,0.832702
1303001014789,0.823889
1303001074789,0.822183
1303001134789,0.833019
1303001194789,0.821961
1303001254789,0.812441
1303001314789,0.820010
1303001374789,0.823782
1303001434789,0.815168
1303001494789,0.827739
1303001554789,0.812733
1303001614789,0.817631
1303001674789,0.821697
1303001734789,0.819114
1303001794789,0.820639
1303001854789,0.819510
1303001914789,0.814108
1303001974789,0.820069
1303002034801,0.818421
1303002094801,0.815669
1303002154801,0.817047
1303002214801,0.812589
1303002274801,0.814715
1303002334801,0.820287
1303002394801,0.820442
1303002454801,0.822040
1303002514801,0.809788
1303002574801,0.821368
1303002634801,0.821477
1303002694801,0.819810
1303002754801,0.822129
1303002814801,0.821573
1303002874801,0.815583
1303002934801,0.820174
1303002994801,0.829224
1303003054801,0.828667
1303003114801,0.823772
1303003174801,0.824565
1303003234801,0.831188
1303003294801,0.830137
1303003354801,0.833825
1303003414801,0.835267
1303003474801,0.828249
1303003534801,0.836111
1303003594801,0.833888
1303003654801,0.835861
1303003714801,0.834855
1303003774801,0.834661
1303003834801,0.837472
1303003894801,0.830728
1303003954801,0.823915
1303004014801,0.836060
1303004074801,0.834953
1303004134801,0.840971
1303004194801,0.836028
1303004254801,0.836549
1303004314801,0.831797
1303004374801,0.831367
1303004434801,0.824514
1303004494801,0.825504
1303004554801,0.818357
1303004614801,0.828896
1303004674801,0.832946
1303004734801,0.825238
1303004794801,0.825491
1303004854801,0.825795
1303004914801,0.821518
1303004974801,0.823564
1303005034801,0.822757
1303005094801,0.826807
1303005154801,0.814116
1303005214801,0.821932
1303005274801,0.819166
1303005334801,0.822926
1303005394801,0.827251
1303005454801,0.822791
1303005514801,0.814297
1303005574801,0.823573
1303005634813,0.824387
1303005694813,0.822237
1303005754813,0.825991
1303005814813,0.823617
1303005874813,0.814791
1303005934813,0.820497
1303005994813,0.817422
1303006054813,0.816468
1303006114813,0.814017
1303006174813,0.816998
1303006234813,0.815560
1303006294813,0.819478
1303006354813,0.819440
1303006414813,0.810727
1303006474813,0.819135
1303006534813,0.813983
1303006594813,0.814578
1303006654813,0.814151
1303006714813,0.815879
1303006774813,0.813315
1303006834813,0.813607
1303006894813,0.809508
1303006954813,0.812179
1303007014813,0.808126
1303007074813,0.812930
1303007134813,0.819614
1303007194813,0.816062
1303007254813,0.814837
1303007314813,0.812936
1303007374813,0.815642
1303007434813,0.818342
1303007494813,0.812108
1303007554813,0.820682
1303007614813,0.808518
1303007674813,0.812502
1303007734813,0.814566
1303007794813,0.818034
1303007854813,0.816747
1303007914813,0.817667
1303007974813,0.819392
1303008034813,0.814278
1303008094813,0.820035
1303008154813,0.814192
1303008214813,0.820707
1303008274813,0.817619
1303008334813,0.816160
1303008394813,0.810507
1303008454813,0.815895
1303008514813,0.813099
1303008574813,0.822489
1303008634813,0.824989
1303008694813,0.816459
1303008754813,0.821124
1303008814813,0.821054
1303008874813,0.824647
1303008934813,0.820787
1303008994813,0.820502
1303009054813,0.816437
1303009114813,0.827290
1303009174813,0.819135
1303009234824,0.811777
1303009294824,0.825670
1303009354824,0.820421
1303009414824,0.825586
1303009474824,0.829657
1303009534824,0.828588
1303009594824,0.828070
1303009654824,0.820610
1303009714824,0.817016
1303009774824,0.814601
1303009834824,0.822150
1303009894824,0.815503
1303009954824,0.811460
1303010014824,0.815319
1303010074824,0.811557
1303010134824,0.821990
1303010194824,0.818903
1303010254824,0.814902
1303010314824,0.824974
1303010374824,0.815787
1303010434824,0.819156
1303010494824,0.811597
1303010554824,0.812331
1303010614824,0.820814
1303010674824,0.818598
1303010734824,0.825775
1303010794824,0.810704
1303010854824,0.817982
1303010914824,0.814602
1303010974824,0.819955
1303011034824,0.811978
1303011094824,0.818410
1303011154824,0.820590
1303011214824,0.813255
1303011274824,0.812747
1303011334824,0.820039
1303011394824,0.817565
1303011454824,0.818401
1303011514824,0.814409
1303011574824,0.819380
1303011634824,0.811467
1303011694824,0.812542
1303011754824,0.819928
1303011814824,0.816268
1303011874824,0.811583
1303011934824,0.816311
1303011994824,0.816517
1303012054824,0.809771
1303012114824,0.811787
1303012174824,0.820149
1303012234824,0.813519
1303012294824,0.813287
1303012354824,0.822674
1303012414824,0.812930
1303012474824,0.807781
1303012534824,0.819460
1303012594824,0.809348
1303012654824,0.818424
1303012714824,0.808313
1303012774824,0.810996
1303012834835,0.811176
1303012894835,0.820325
1303012954835,0.812353
1303013014835,0.815617
1303013074835,0.814792
1303013134835,0.817145
1303013194835,0.812641
1303013254835,0.809230
1303013314835,0.812452
1303013374835,0.805196
1303013434835,0.812932
1303013494835,0.809130
1303013554835,0.811541
1303013614835,0.813856
1303013674835,0.813597
1303013734835,0.812883
1303013794835,0.820525
1303013854835,0.806513
1303013914835,0.803292
1303013974835,0.814004
1303014034835,0.811136
1303014094835,0.806348
1303014154835,0.813463
1303014214835,0.806809
1303014274835,0.806831
1303014334835,0.815186
1303014394835,0.808610
1303014454835,0.805136
1303014514835,0.810916
1303014574835,0.807242
1303014634835,0.810397
1303014694835,0.816797
1303014754835,0.809680
1303014814835,0.799621
1303014874835,0.808763
1303014934835,0.809023
1303014994835,0.808219
1303015054835,0.809696
1303015114835,0.807710
1303015174835,0.805946
1303015234835,0.809442
1303015294835,0.813745
1303015354835,0.810295
1303015414835,0.808352
1303015474835,0.814200
1303015534835,0.811289
1303015594835,0.811301
1303015654835,0.809272
1303015714835,0.811422
1303015774835,0.815052
1303015834835,0.821657
1303015894835,0.806642
1303015954835,0.810945
1303016014835,0.808012
1303016074835,0.816832
1303016134835,0.807573
1303016194835,0.807763
1303016254835,0.810400
1303016314835,0.802295
1303016374835,0.804283
1303016434847,0.809130
1303016494847,0.808052
1303016554847,0.806917
1303016614847,0.805221
1303016674847,0.802310
1303016734847,0.808597
1303016794847,0.805913
1303016854847,0.806610
1303016914847,0.809096
1303016974847,0.803301
1303017034847,0.812180
1303017094847,0.810669
1303017154847,0.810732
1303017214847,0.809004
1303017274847,0.810562
1303017334847,0.807487
1303017394847,0.807340
1303017454847,0.804209
1303017514847,0.815943
1303017574847,0.810076
1303017634847,0.807133
1303017694847,0.809092
1303017754847,0.806419
1303017814847,0.801659
1303017874847,0.801807
1303017934847,0.806732
1303017994847,0.816405
1303018054847,0.803083
1303018114847,0.806020
1303018174847,0.802047
1303018234847,0.812243
1303018294847,0.807412
1303018354847,0.810626
1303018414847,0.805024
1303018474847,0.811258
1303018534847,0.812023
1303018594847,0.807180
1303018654847,0.811686
1303018714847,0.804276
1303018774847,0.810032
1303018834847,0.815439
1303018894847,0.815553
1303018954847,0.817198
1303019014847,0.812819
1303019074847,0.813881
1303019134847,0.812022
1303019194847,0.818586
1303019254847,0.811972
1303019314847,0.818029
1303019374847,0.816193
1303019434847,0.811728
1303019494847,0.807969
1303019554847,0.812840
1303019614847,0.814911
1303019674847,0.817072
1303019734847,0.815027
1303019794847,0.813866
1303019854847,0.810325
1303019914847,0.808015
1303019974847,0.818538
1303020034858,0.811171
1303020094858,0.811790
1303020154858,0.817284
1303020214858,0.812560
1303020274858,0.814704
1303020334858,0.812306
1303020394858,0.808566
1303020454858,0.815359
1303020514858,0.809600
1303020574858,0.814068
1303020634858,0.812556
1303020694858,0.812284
1303020754858,0.810471
1303020814858,0.807622
1303020874858,0.807845
1303020934858,0.807568
1303020994858,0.810644
1303021054858,0.809206
1303021114858,0.810558
1303021174858,0.804826
1303021234858,0.817382
1303021294858,0.801007
1303021354858,0.807954
1303021414858,0.804445
1303021474858,0.809521
1303021534858,0.809652
1303021594858,0.811407
1303021654858,0.808573
1303021714858,0.805019
1303021774858,0.816975
1303021834858,0.808307
1303021894858,0.811752
1303021954858,0.814323
1303022014858,0.818371
1303022074858,0.815300
1303022134858,0.814606
1303022194858,0.821979
1303022254858,0.816205
1303022314858,0.815282
1303022374858,0.820709
1303022434858,0.821030
1303022494858,0.814501
1303022554858,0.814995
1303022614858,0.815497
1303022674858,0.812763
1303022734858,0.815403
1303022794858,0.818004
1303022854858,0.816184
1303022914858,0.821088
1303022974858,0.823284
1303023034858,0.818938
1303023094858,0.820233
1303023154858,0.823469
1303023214858,0.823676
1303023274858,0.817846
1303023334858,0.824602
1303023394858,0.817807
1303023454858,0.818044
1303023514858,0.820521
1303023574858,0.820113
1303023634869,0.817982
1303023694869,0.820754
1303023754869,0.823810
1303023814869,0.827857
1303023874869,0.816879
1303023934869,0.829764
1303023994869,0.824014
1303024054869,0.819028
1303024114869,0.819935
1303024174869,0.813306
1303024234869,0.819974
1303024294869,0.820274
1303024354869,0.819796
1303024414869,0.816831
1303024474869,0.822222
1303024534869,0.823075
1303024594869,0.823522
1303024654869,0.818982
1303024714869,0.820744
1303024774869,0.821169
1303024834869,0.820469
1303024894869,0.824523
1303024954869,0.818101
1303025014869,0.819672
1303025074869,0.820892
1303025134869,0.825032
1303025194869,0.815549
1303025254869,0.815185
1303025314869,0.821518
1303025374869,0.813725
1303025434869,0.827132
1303025494869,0.819335
1303025554869,0.814245
1303025614869,0.814263
1303025674869,0.810885
1303025734869,0.811588
1303025794869,0.807350
1303025854869,0.813225
1303025914869,0.810330
1303025974869,0.808480
1303026034869,0.816171
1303026094869,0.815386
1303026154869,0.803145
1303026214869,0.813317
1303026274869,0.813657
1303026334869,0.809259
1303026394869,0.808975
1303026454869,0.809026
1303026514869,0.807398
1303026574869,0.819211
1303026634869,0.806723
1303026694869,0.807073
1303026754869,0.815237
1303026814869,0.805451
1303026874869,0.813711
1303026934869,0.810830
1303026994869,0.814077
1303027054869,0.811479
1303027114869,0.799496
1303027174869,0.811562
1303027234880,0.812260
1303027294880,0.816716
1303027354880,0.808889
1303027414880,0.815422
1303027474880,0.816881
1303027534880,0.810442
1303027594880,0.826170
1303027654880,0.821963
1303027714880,0.822093
1303027774880,0.822134
1303027834880,0.834617
1303027894880,0.823582
1303027954880,0.831796
1303028014880,0.823571
1303028074880,0.835495
1303028134880,0.826876
1303028194880,0.822634
1303028254880,0.827988
1303028314880,0.819326
1303028374880,0.828726
1303028434880,0.819148
1303028494880,0.826081
1303028554880,0.812254
1303028614880,0.817276
1303028674880,0.819736
1303028734880,0.818971
1303028794880,0.814535
1303028854880,0.815638
1303028914880,0.812421
1303028974880,0.823195
1303029034880,0.816450
1303029094880,0.815998
1303029154880,0.820413
1303029214880,0.818928
1303029274880,0.816903
1303029334880,0.816093
1303029394880,0.817498
1303029454880,0.808295
1303029514880,0.813319
1303029574880,0.820020
1303029634880,0.812461
1303029694880,0.816358
1303029754880,0.809958
1303029814880,0.823432
1303029874880,0.817995
1303029934880,0.816912
1303029994880,0.821867
1303030054880,0.815728
1303030114880,0.811979
1303030174880,0.814192
1303030234880,0.819730
1303030294880,0.806294
1303030354880,0.812082
1303030414880,0.814303
1303030474880,0.803788
1303030534880,0.817683
1303030594880,0.816106
1303030654880,0.814757
1303030714880,0.814139
1303030774880,0.814345
1303030834892,0.818930
1303030894892,0.811675
1303030954892,0.816127
1303031014892,0.816719
1303031074892,0.818628
1303031134892,0.812315
1303031194892,0.812120
1303031254892,0.813543
1303031314892,0.813823
1303031374892,0.808411
1303031434892,0.807576
1303031494892,0.806025
1303031554892,0.811013
1303031614892,0.806457
1303031674892,0.806567
1303031734892,0.809504
1303031794892,0.807078
1303031854892,0.809761
1303031914892,0.813824
1303031974892,0.810299
1303032034892,0.812304
1303032094892,0.808192
1303032154892,0.802699
1303032214892,0.813853
1303032274892,0.810654
1303032334892,0.817164
1303032394892,0.812412
1303032454892,0.810642
1303032514892,0.813260
1303032574892,0.809843
1303032634892,0.812238
1303032694892,0.811369
1303032754892,0.814221
1303032814892,0.818406
1303032874892,0.814813
1303032934892,0.808850
1303032994892,0.815691
1303033054892,0.810018
1303033114892,0.806705
1303033174892,0.811818
1303033234892,0.814246
1303033294892,0.815791
1303033354892,0.806151
1303033414892,0.805465
1303033474892,0.807946
1303033534892,0.806279
1303033594892,0.807026
1303033654892,0.803968
1303033714892,0.808055
1303033774892,0.803757
1303033834892,0.805424
1303033894892,0.793351
1303033954892,0.800188
1303034014892,0.796025
1303034074892,0.803455
1303034134892,0.797312
1303034194892,0.802434
1303034254892,0.796240
1303034314892,0.807477
1303034374892,0.808817
1303034434903,0.805135
1303034494903,0.810093
1303034554903,0.804446
1303034614903,0.799151
1303034674903,0.802266
1303034734903,0.804765
1303034794903,0.801870
1303034854903,0.805002
1303034914903,0.808357
1303034974903,0.799407
1303035034903,0.798921
1303035094903,0.800835
1303035154903,0.807733
1303035214903,0.804173
1303035274903,0.807752
1303035334903,0.810754
1303035394903,0.805568
1303035454903,0.802665
1303035514903,0.803907
1303035574903,0.803975
1303035634903,0.801666
1303035694903,0.806421
1303035754903,0.801131
1303035814903,0.807314
1303035874903,0.806261
1303035934903,0.805614
1303035994903,0.798345
1303036054903,0.809871
1303036114903,0.802096
1303036174903,0.799081
1303036234903,0.806059
1303036294903,0.813028
1303036354903,0.808239
1303036414903,0.809544
1303036474903,0.816486
1303036534903,0.805849
1303036594903,0.806966
1303036654903,0.810934
1303036714903,0.820761
1303036774903,0.803395
1303036834903,0.810696
1303036894903,0.813459
1303036954903,0.813091
1303037014903,0.815822
1303037074903,0.806968
1303037134903,0.812194
1303037194903,0.809108
1303037254903,0.815019
1303037314903,0.811771
1303037374903,0.817975
1303037434903,0.818620
1303037494903,0.821520
1303037554903,0.814956
1303037614903,0.814042
1303037674903,0.816808
1303037734903,0.816756
1303037794903,0.822293
1303037854903,0.811104
1303037914903,0.813702
1303037974903,0.818833
1303038034914,0.818512
1303038094914,0.817397
1303038154914,0.822511
1303038214914,0.818211
1303038274914,0.826539
1303038334914,0.827173
1303038394914,0.818574
1303038454914,0.820969
1303038514914,0.814169
1303038574914,0.821670
1303038634914,0.818701
1303038694914,0.812504
1303038754914,0.813864
1303038814914,0.813680
1303038874914,0.817370
1303038934914,0.815242
1303038994914,0.812775
1303039054914,0.813990
1303039114914,0.812236
1303039174914,0.811680
1303039234914,0.816856
1303039294914,0.812001
1303039354914,0.811274
1303039414914,0.809381
1303039474914,0.818585
1303039534914,0.816191
1303039594914,0.807724
1303039654914,0.816088
1303039714914,0.806867
1303039774914,0.807975
1303039834914,0.806282
1303039894914,0.811967
1303039954914,0.809711
1303040014914,0.807241
1303040074914,0.813152
1303040134914,0.804015
1303040194914,0.806942
1303040254914,0.808157
1303040314914,0.815844
1303040374914,0.805595
1303040434914,0.811228
1303040494914,0.811842
1303040554914,0.810298
1303040614914,0.806071
1303040674914,0.811202
1303040734914,0.815716
1303040794914,0.814586
1303040854914,0.811345
1303040914914,0.813534
1303040974914,0.809719
1303041034914,0.819863
1303041094914,0.808152
1303041154914,0.812530
1303041214914,0.814122
1303041274914,0.817730
1303041334914,0.817597
1303041394914,0.821142
1303041454914,0.810390
1303041514914,0.814161
1303041574914,0.812397
1303041634925,0.822492
1303041694925,0.818768
1303041754925,0.813563
1303041814925,0.817926
1303041874925,0.810863
1303041934925,0.805776
1303041994925,0.810821
1303042054925,0.804237
1303042114925,0.818192
1303042174925,0.808989
1303042234925,0.821493
1303042294925,0.815239
1303042354925,0.810629
1303042414925,0.812740
1303042474925,0.820934
1303042534925,0.818527
1303042594925,0.825472
1303042654925,0.810521
1303042714925,0.808715
1303042774925,0.808037
1303042834925,0.812280
1303042894925,0.816483
1303042954925,0.810809
1303043014925,0.814315
1303043074925,0.813806
1303043134925,0.813497
1303043194925,0.812749
1303043254925,0.812248
1303043314925,0.822240
1303043374925,0.812700
1303043434925,0.807848
1303043494925,0.813513
1303043554925,0.811521
1303043614925,0.812523
1303043674925,0.807867
1303043734925,0.809115
1303043794925,0.808157
1303043854925,0.812975
1303043914925,0.804061
1303043974925,0.810094
1303044034925,0.812633
1303044094925,0.807520
1303044154925,0.807371
1303044214925,0.810821
1303044274925,0.811667
1303044334925,0.807767
1303044394925,0.812566
1303044454925,0.815553
1303044514925,0.813150
1303044574925,0.802284
1303044634925,0.814207
1303044694925,0.810438
1303044754925,0.807900
1303044814925,0.810749
1303044874925,0.814082
1303044934925,0.809773
1303044994925,0.809925
1303045054925,0.818460
1303045114925,0.806814
1303045174925,0.810831
1303045234936,0.812954
1303045294936,0.807348
1303045354936,0.812820
1303045414936,0.813268
1303045474936,0.803624
1303045534936,0.811065
1303045594936,0.821985
1303045654936,0.805120
1303045714936,0.808064
1303045774936,0.816011
1303045834936,0.815553
1303045894936,0.811833
1303045954936,0.811933
1303046014936,0.808599
1303046074936,0.810639
1303046134936,0.812072
1303046194936,0.813857
1303046254936,0.812803
1303046314936,0.809100
1303046374936,0.806553
1303046434936,0.815978
1303046494936,0.808607
1303046554936,0.816893
1303046614936,0.820856
1303047754936,0.814084
1303047814936,0.814616
1303047874936,0.812858
1303047934936,0.813834
1303047994936,0.809455
1303048054936,0.818244
1303048114936,0.821547
1303048174936,0.808539
1303048234936,0.816899
1303048294936,0.826410
1303048354936,0.810952
1303048414936,0.812167
1303048474936,0.815369
1303048534936,0.809653
1303048594936,0.816796
1303048654936,0.813747
1303048714936,0.810708
1303048774936,0.814321
1303048834947,0.817080
1303048894947,0.806736
1303048954947,0.808832
1303049014947,0.810487
1303049074947,0.810444
1303049134947,0.803961
1303049194947,0.819495
1303049254947,0.816353
1303049314947,0.817799
1303049374947,0.817302
1303049434947,0.823901
1303049494947,0.820776
1303049554947,0.816444
1303049614947,0.826133
1303049674947,0.830996
1303049734947,0.837707
1303049794947,0.839645
1303049854947,0.849868
1303049914947,0.860420
1303049974947,0.859900
1303050034947,0.867857
1303050094947,0.871672
1303050154947,0.872415
1303050214947,0.866445
1303050274947,0.869931
1303050334947,0.861621
1303050394947,0.859256
1303050454947,0.859461
1303050514947,0.859010
1303050574947,0.846143
1303050634947,0.849216
1303050694947,0.840038
1303050754947,0.838825
1303050814947,0.839552
1303050874947,0.836689
1303050934947,0.836068
1303050994947,0.834144
1303051054947,0.833516
1303051114947,0.833117
1303051174947,0.825222
1303051234947,0.820240
1303051294947,0.820239
1303051354947,0.824625
1303051414947,0.826535
1303051474947,0.826825
1303051534947,0.826773
1303051594947,0.819998
1303051654947,0.822052
1303051714947,0.820115
1303051774947,0.823562
1303051834947,0.818287
1303051894947,0.816240
1303051954947,0.811408
1303052014947,0.819625
1303052074947,0.819784
1303052134947,0.811271
1303052194947,0.817548
1303052254947,0.811683
1303052314947,0.819122
1303052374947,0.819529
1303052434957,0.812263
1303052494957,0.813383
1303052554957,0.821824
1303052614957,0.812993
1303052674957,0.815267
1303052734957,0.820777
1303052794957,0.809544
1303052854957,0.819536
1303052914957,0.816878
1303052974957,0.817344
1303053034957,0.819910
1303053094957,0.813499
1303053154957,0.810019
1303053214957,0.811058
1303053274957,0.819156
1303053334957,0.808435
1303053394957,0.814289
1303053454957,0.815226
1303053514957,0.816082
1303053574957,0.808853
1303053634957,0.813491
1303053694957,0.806373
1303053754957,0.810518
1303053814957,0.808118
1303053874957,0.803554
1303053934957,0.813061
1303053994957,0.812958
1303054054957,0.812443
1303054114957,0.803542
1303054174957,0.810061
1303054234957,0.805599
1303054294957,0.804771
1303054354957,0.804810
1303054414957,0.815323
1303054474957,0.816996
1303054534957,0.811522
1303054594957,0.816383
1303054654957,0.813171
1303054714957,0.815223
1303054774957,0.827916
1303054834957,0.818395
1303054894957,0.815557
1303054954957,0.823945
1303055014957,0.831624
1303055074957,0.828073
1303055134957,0.827588
1303055194957,0.833427
1303055254957,0.823775
1303055314957,0.828518
1303055374957,0.834586
1303055434957,0.830331
1303055494957,0.832881
1303055554957,0.828741
1303055614957,0.824424
1303055674957,0.828927
1303055734957,0.829384
1303055794957,0.823995
1303055854957,0.825680
1303055914957,0.821401
1303055974957,0.823011
1303056034968,0.819880
1303056094968,0.819141
1303056154968,0.825513
1303056214968,0.816334
1303056274968,0.824086
1303056334968,0.820242
1303056394968,0.824196
1303056454968,0.824185
1303056514968,0.823379
1303056574968,0.828473
1303056634968,0.816581
1303056694968,0.821569
1303056754968,0.815344
1303056814968,0.819997
1303056874968,0.815973
1303056934968,0.810020
1303056994968,0.819089
1303057054968,0.816139
1303057114968,0.814256
1303057174968,0.818060
1303057234968,0.817645
1303057294968,0.820907
1303057354968,0.818485
1303057414968,0.812158
1303057474968,0.814409
1303057534968,0.808405
1303057594968,0.813374
1303057654968,0.812413
1303057714968,0.816998
1303057774968,0.820264
1303057834968,0.810632
1303057894968,0.817470
1303057954968,0.806118
1303058014968,0.817660
1303058074968,0.817397
1303058134968,0.810993
1303058194968,0.816902
1303058254968,0.817329
1303058314968,0.815423
1303058374968,0.826252
1303058434968,0.825456
1303058494968,0.820673
1303058554968,0.820512
1303058614968,0.818790
1303058674968,0.830118
1303058734968,0.831129
1303058794968,0.830657
1303058854968,0.827561
1303058914968,0.832711
1303058974968,0.835921
1303059034968,0.834328
1303059094968,0.829261
1303059154968,0.829855
1303059214968,0.833257
1303059274968,0.826745
1303059334968,0.828570
1303059394968,0.828083
1303059454968,0.833726
1303059514968,0.832116
1303059574968,0.821611
1303059634979,0.830662
1303059694979,0.830254
1303059754979,0.825765
1303059814979,0.825360
1303059874979,0.823979
1303059934979,0.818635
1303059994979,0.820642
1303060054979,0.820941
1303060114979,0.820254
1303060174979,0.817877
1303060234979,0.821691
1303060294979,0.815962
1303060354979,0.824688
1303060414979,0.819637
1303060474979,0.816951
1303060534979,0.822001
1303060594979,0.823576
1303060654979,0.823063
1303060714979,0.820086
1303060774979,0.814097
1303060834979,0.821075
1303060894979,0.825606
1303060954979,0.824325
1303061014979,0.819708
1303061074979,0.814689
1303061134979,0.820056
1303061194979,0.820573
1303061254979,0.819746
1303061314979,0.818597
1303061374979,0.819588
1303061434979,0.823554
1303061494979,0.818710
1303061554979,0.824234
1303061614979,0.826394
1303061674979,0.818368
1303061734979,0.822009
1303061794979,0.815511
1303061854979,0.816547
1303061914979,0.818466
1303061974979,0.821145
1303062034979,0.824445